Temperature
10 10 10 10 10 10 10 10 10 10 10 10 10 10 10 10 10 10 10 10 10 10 10 10 10 10 10 10 10 10 11 11 11 11 11 11 11 10 10 10 10 10 10
9 9 9 9 9 9 9 9 9 9 10 10 10 10 10 10 10 10 10 10 10 10 10 10 10 10 10 10 10 10 10 10 10 10 10 10 10 10 10 10 10 10 10
9 9 9 9 9 9 9 9 9 9 9 9 9 9 9 9 9 9 9 9 10 10 10 10 9 9 9 9 10 10 10 10 10 9 9 10 10 10 10 10 10 9 9
8 8 8 8 8 8 8 8 8 8 8 8 9 9 8 9 9 9 9 9 9 9 9 9 9 9 9 9 9 9 9 9 9 9 9 9 9 9 9 9 9 9 9
8 8 8 8 8 8 8 8 8 8 8 8 8 8 8 8 8 8 8 8 8 8 9 9 9 9 9 9 9 9 9 9 9 9 9 9 8 9 9 9 9 9 9
7 7 7 7 7 7 7 7 7 7 7 7 7 8 7 7 7 7 7 8 8 8 8 8 8 8 8 8 8 8 8 8 8 8 8 8 8 8 8 8 8 8 8
6 7 7 7 7 7 7 7 7 7 7 7 7 6 7 7 7 7 7 7 7 7 7 7 7 7 7 7 8 8 8 8 8 8 7 8 8 8 8 8 8 8 8
6 6 6 6 6 6 6 6 6 6 6 6 6 5 5 5 6 6 6 6 6 6 6 7 7 7 7 7 7 7 7 7 7 7 7 7 7 7 7 7 7 7 7
5 5 5 5 5 5 5 5 5 5 5 5 5 5 5 5 5 5 6 6 6 6 6 6 6 6 6 6 6 6 6 6 7 7 6 6 6 7 7 7 7 7 7
4 4 4 4 4 4 4 4 4 4 4 4 4 4 4 4 4 4 5 5 5 5 5 5 5 5 5 5 5 5 6 6 6 6 6 6 6 6 6 6 6 6 6
4 4 4 4 4 3 4 4 4 4 4 4 4 4 4 4 4 4 3 4 4 4 4 4 4 4 4 4 5 5 5 5 5 5 5 5 5 5 5 6 6 5 5
3 3 3 3 3 3 3 3 3 3 3 3 3 3 3 3 4 3 3 3 3 4 4 4 4 4 4 4 4 4 4 4 4 5 5 5 5 5 5 5 5 5 5
2 2 2 2 2 2 2 2 2 2 2 3 3 3 3 3 3 3 3 3 2 3 3 3 3 3 3 3 3 3 3 4 4 4 4 4 4 4 4 4 4 4 4
1 1 1 2 2 2 2 2 2 2 2 2 2 2 2 2 2 2 2 2 2 2 2 2 3 3 3 3 3 3 3 3 3 3 3 3 3 3 3 3 3 4 4
1 1 1 1 1 1 1 1 1 1 1 1 1 1 1 1 1 2 2 2 1 1 1 2 2 2 2 2 2 2 2 2 2 2 2 2 2 3 3 3 3 3 3
0 0 0 0 0 0 0 0 0 0 0 0 0 0 1 1 0 1 1 1 1 0 0 1 1 1 1 1 1 1 1 1 2 2 2 2 2 2 2 2 2 2 2
-0 -0 -0 -0 -0 -0 -0 -0 -0 -0 -0 -0 -0 -0 -0 -0 -0 -0 0 0 0 -0 -0 -0 0 0 0 0 1 1 1 1 1 1 1 1 1 1 1 1 1 1 1
-1 -1 -1 -1 -1 -1 -1 -1 -1 -1 -1 -1 -1 -1 -1 -1 -1 -1 -1 -1 -1 -1 -1 -1 -1 -0 -0 -0 -0 -0 -0 -0 -0 0 0 0 0 0 0 0 0 0 1
-2 -2 -2 -2 -2 -2 -2 -2 -2 -1 -1 -1 -1 -1 -1 -1 -1 -1 -1 -2 -1 -1 -2 -2 -2 -1 -1 -1 -1 -1 -1 -1 -1 -1 -1 -1 -1 -0 -1 -1 -0 -0 -0
-2 -2 -3 -3 -3 -2 -2 -2 -2 -2 -2 -2 -2 -2 -2 -2 -2 -2 -2 -2 -2 -2 -2 -3 -2 -2 -2 -2 -2 -2 -2 -2 -2 -2 -2 -2 -1 -1 -1 -1 -1 -1 -1
-3 -3 -3 -3 -3 -3 -3 -3 -3 -3 -3 -3 -3 -3 -3 -3 -3 -3 -3 -3 -3 -3 -3 -3 -3 -3 -3 -3 -3 -3 -3 -3 -3 -3 -2 -2 -2 -2 -2 -2 -2 -2 -2
-4 -4 -4 -4 -4 -4 -4 -4 -4 -4 -4 -4 -4 -3 -4 -3 -3 -3 -3 -3 -4 -4 -4 -4 -4 -4 -4 -4 -4 -3 -4 -4 -4 -4 -3 -3 -3 -3 -3 -3 -2 -2 -2
-5 -5 -5 -5 -5 -5 -5 -5 -5 -5 -5 -5 -4 -4 -4 -4 -4 -4 -4 -4 -4 -4 -4 -4 -4 -4 -4 -4 -4 -4 -4 -4 -4 -4 -4 -4 -4 -4 -4 -4 -3 -3 -3
-6 -6 -6 -6 -6 -6 -6 -5 -6 -6 -6 -5 -5 -5 -5 -5 -5 -5 -5 -5 -5 -5 -5 -5 -5 -5 -5 -5 -5 -5 -5 -5 -5 -5 -5 -5 -5 -5 -5 -4 -4 -4 -4
-7 -7 -7 -7 -6 -6 -6 -6 -6 -6 -6 -6 -6 -6 -6 -6 -5 -5 -6 -5 -5 -5 -5 -5 -5 -5 -5 -5 -6 -6 -6 -6 -6 -6 -6 -6 -6 -6 -6 -5 -5 -5 -4
-8 -8 -8 -7 -7 -7 -7 -7 -7 -7 -7 -7 -7 -6 -6 -6 -6 -6 -6 -6 -6 -6 -6 -6 -6 -6 -6 -6 -6 -6 -7 -7 -7 -7 -7 -7 -7 -7 -7 -6 -6 -6 -5
Wind_Speed
1 1 2 2 2 2 1 1 2 2 2 3 3 3 3 3 3 3 4 5 5 4 4 5 5 5 5 6 6 6 6 6 7 7 7 7 7 7 7 7 7 7 7
1 1 1 1 1 1 1 1 1 1 1 2 2 2 2 2 2 3 3 4 5 5 4 4 5 5 5 5 6 6 6 6 6 6 6 6 7 6 6 6 7 7 6
1 1 1 1 1 1 1 1 1 1 1 1 1 1 2 2 2 2 3 2 3 5 5 5 4 4 4 5 5 5 6 5 5 5 5 5 5 5 5 5 5 5 5
1 1 1 1 1 1 1 1 1 1 1 1 1 1 1 1 2 2 2 2 2 2 4 5 5 4 3 3 4 4 5 5 5 5 4 4 4 4 4 5 5 4 4
1 1 1 1 1 1 1 1 1 1 1 1 1 1 1 1 1 1 2 3 3 3 3 4 5 5 4 3 3 3 4 4 4 4 3 3 3 3 3 3 4 4 4
1 1 1 1 1 1 1 1 1 1 1 1 1 1 1 1 1 1 2 2 2 3 3 3 2 3 5 4 3 2 2 3 3 3 2 2 2 2 2 2 3 3 3
1 0 0 1 1 1 2 2 2 2 1 1 1 0 0 0 1 1 1 1 1 2 2 2 2 2 2 3 4 2 1 2 2 2 2 2 1 2 2 1 2 2 3
1 1 1 1 1 1 2 2 2 2 1 1 1 1 2 2 1 1 1 1 0 0 1 1 1 1 1 1 2 2 2 1 1 2 2 3 2 2 3 3 3 3 3
1 1 1 1 1 2 2 3 3 3 2 2 2 2 2 3 1 2 2 2 1 1 1 0 0 0 0 1 1 1 2 2 2 1 2 2 3 3 4 4 4 4 4
1 1 2 2 2 2 3 3 3 3 4 3 3 2 2 1 2 2 2 3 2 2 2 2 2 1 1 1 1 1 2 2 3 3 4 3 3 3 4 4 4 4 4
2 2 2 2 2 2 3 3 3 4 4 4 3 2 2 2 3 3 3 3 3 3 3 3 3 2 2 1 1 2 3 3 4 5 6 5 5 4 4 4 4 4 5
2 2 2 2 2 2 3 3 4 5 4 5 4 3 3 3 3 3 3 4 4 3 3 3 3 3 3 3 2 2 3 4 4 5 6 6 6 6 6 5 5 5 5
2 3 2 3 3 3 3 4 4 5 5 5 5 4 5 5 3 3 3 3 4 3 4 4 4 4 4 4 3 4 4 5 5 5 6 6 6 6 6 6 6 6 7
3 3 3 3 4 4 3 3 4 5 5 5 6 5 4 4 4 4 4 3 3 4 5 5 4 5 4 5 5 5 6 6 6 6 7 6 6 6 7 7 7 8 8
3 4 4 4 4 4 4 4 4 5 5 5 5 5 5 4 4 4 4 5 5 5 6 5 4 5 5 5 6 6 7 7 7 7 7 7 7 8 8 8 9 9 9
4 4 4 5 5 5 5 5 4 5 5 5 5 6 6 5 4 4 5 5 6 6 6 5 5 4 5 6 7 8 8 8 9 9 9 9 9 10 10 10 10 10 10
4 4 4 5 5 5 5 5 6 5 6 6 6 7 7 6 5 5 5 5 6 6 7 5 4 4 6 6 6 8 8 8 8 10 10 10 11 11 11 11 11 10 10
4 4 4 5 5 5 6 6 6 6 7 7 7 7 7 6 7 6 6 6 6 6 7 7 5 5 6 7 6 6 7 7 8 9 10 10 11 11 11 11 12 11 11
4 4 4 5 5 5 6 6 6 6 7 7 7 7 7 7 8 7 7 7 6 6 6 6 5 5 5 5 5 6 6 6 8 8 9 10 10 10 11 11 12 12 12
4 5 5 5 5 5 6 6 6 6 7 7 7 7 7 8 9 8 8 8 7 7 7 6 6 5 5 4 5 5 5 6 6 7 9 9 10 11 12 12 12 12 12
4 4 5 5 5 5 5 6 6 7 7 7 7 7 8 9 10 9 7 7 7 7 7 7 6 5 5 4 5 5 6 5 6 6 6 7 8 8 9 11 12 13 13
4 4 5 5 5 5 6 7 7 7 7 7 8 8 8 9 10 11 12 11 10 9 8 7 7 8 8 7 6 5 6 6 6 4 6 7 7 7 8 9 12 14 14
4 5 5 5 6 6 8 9 9 7 8 8 8 8 7 7 10 9 10 11 12 13 13 10 10 10 9 8 7 8 8 8 8 5 5 8 7 8 8 10 13 14 14
4 5 5 6 6 6 8 9 9 8 8 8 8 9 9 9 8 9 8 9 10 11 12 11 10 10 9 9 9 9 8 8 7 6 6 7 6 7 7 9 12 13 13
5 5 5 6 6 7 8 9 9 6 7 8 8 9 10 10 11 12 9 9 9 9 11 14 14 12 12 12 9 6 6 6 7 6 5 5 5 6 7 8 10 13 13
5 5 5 6 6 7 8 10 9 6 7 7 7 8 10 11 12 12 9 8 9 9 8 8 9 9 9 10 11 9 8 8 6 6 5 5 5 4 5 5 6 8 10
Wind_Direction
96 83 81 92 86 80 82 85 92 84 83 79 77 75 77 85 78 78 75 74 81 97 108 109 107 117 123 124 118 111 116 122 116 108 103 102 107 113 116 115 114 111 109
88 114 115 94 84 83 86 100 106 105 95 88 76 71 69 87 76 74 81 84 73 67 76 94 92 107 116 123 121 113 110 113 122 119 110 110 109 117 118 115 115 117 117
92 115 113 95 71 97 104 101 97 96 84 89 82 62 50 66 70 69 77 84 86 71 61 66 79 100 111 120 121 116 110 104 105 113 112 112 116 121 128 129 131 133 130
77 100 111 93 94 143 118 112 134 120 100 82 49 28 30 55 64 64 75 73 75 76 67 53 54 70 99 119 127 128 123 115 111 102 107 114 119 131 134 144 150 152 154
77 110 106 104 144 142 146 147 163 154 156 103 54 32 16 18 61 73 75 71 65 63 70 64 54 55 61 85 111 122 128 127 121 113 105 119 130 135 148 150 156 164 173
63 97 94 128 144 156 168 166 157 153 164 144 102 66 28 16 102 98 97 85 80 71 65 63 62 57 55 58 73 96 122 137 130 128 127 112 132 146 148 168 179 179 189
95 124 121 166 181 188 191 180 163 155 168 163 156 157 345 20 137 111 106 96 80 78 74 70 69 64 48 49 55 64 118 152 153 149 165 168 147 190 209 206 205 205 215
139 190 200 200 216 197 183 184 175 185 234 226 212 202 221 219 211 209 181 158 149 92 87 72 67 68 48 39 39 40 42 28 203 188 200 209 222 242 252 244 242 236 232
186 194 222 210 217 203 199 201 200 200 213 225 246 231 218 221 215 207 210 203 205 210 220 208 201 63 38 22 12 25 357 357 334 265 242 239 247 254 269 271 250 251 249
208 205 222 222 219 217 213 214 219 224 212 216 229 256 277 268 221 209 206 207 216 228 228 227 220 220 238 261 343 357 329 293 290 276 262 258 267 270 276 281 281 270 259
214 219 224 223 227 227 221 217 221 228 225 225 224 229 241 261 248 227 222 217 223 224 229 232 226 215 214 219 252 317 308 279 273 272 264 259 260 266 276 284 284 287 280
221 227 233 232 235 239 229 228 228 230 229 233 233 226 224 227 225 227 236 228 229 227 232 228 222 220 216 220 245 288 281 275 273 271 267 261 256 259 263 270 277 283 292
229 231 236 241 242 245 244 235 232 234 231 231 235 237 236 236 237 232 235 241 243 245 230 224 218 220 220 226 239 263 257 268 271 268 268 269 270 267 267 270 275 278 281
237 237 238 245 245 242 242 241 238 236 237 235 237 240 242 240 235 227 221 222 237 241 235 230 219 222 224 235 246 246 249 255 263 263 265 269 273 273 269 268 270 271 271
244 237 237 243 242 238 238 239 239 239 238 237 238 239 241 246 241 230 223 221 228 234 237 232 226 221 231 241 248 249 250 246 251 257 260 263 264 264 263 266 266 267 268
242 238 237 238 239 237 235 234 239 240 238 239 238 239 239 243 248 240 229 228 232 237 242 236 243 244 237 248 248 251 251 251 244 245 250 255 259 259 259 262 265 267 268
244 240 242 241 239 238 235 232 234 237 239 242 238 238 239 239 241 243 234 228 229 232 244 252 248 247 237 244 248 249 249 249 248 246 250 253 256 257 256 258 261 264 266
246 247 247 246 246 245 241 237 237 237 239 241 241 240 241 238 238 242 235 234 232 231 239 249 246 242 244 241 244 249 251 250 252 252 253 254 255 255 256 257 260 261 262
248 246 245 245 246 248 247 243 240 240 244 245 244 243 242 239 239 240 234 234 235 235 236 244 249 245 249 245 247 250 253 253 255 253 252 254 253 254 258 260 259 258 258
247 249 248 247 249 249 247 246 246 244 245 246 246 246 246 243 241 242 234 232 231 232 232 235 243 245 249 250 247 247 255 255 259 252 251 253 254 255 256 257 257 257 257
251 252 253 253 251 249 243 244 249 249 247 248 247 247 247 247 246 244 238 233 229 230 232 233 237 243 243 241 245 252 258 268 267 252 254 250 251 252 253 252 252 254 256
256 251 250 252 251 249 251 250 251 252 250 248 248 249 250 249 249 249 243 239 235 232 233 235 241 241 244 247 250 247 254 262 267 250 261 263 254 257 253 251 254 258 258
256 250 249 252 255 258 255 254 253 253 251 250 250 250 250 247 248 251 246 244 242 240 237 236 242 243 245 241 240 243 245 249 261 261 261 268 262 260 256 255 259 260 260
257 258 253 254 259 264 261 259 260 256 253 252 251 250 251 250 248 247 244 244 245 243 242 241 243 246 247 246 239 244 251 258 271 260 248 265 269 267 264 259 256 257 259
261 264 263 257 258 265 264 263 265 260 255 255 254 252 251 250 256 251 243 245 249 249 249 251 254 256 254 252 247 243 242 246 259 260 252 260 268 275 274 266 257 255 257
262 267 270 264 260 262 265 266 262 255 256 259 258 254 251 252 258 251 242 243 247 251 252 255 256 256 251 243 234 231 231 235 251 258 240 249 264 276 277 269 262 259 258
Height
1537 1537 1538 1538 1539 1540 1540 1541 1542 1542 1543 1543 1543 1544 1544 1545 1545 1546 1546 1547 1548 1548 1548 1548 1548 1548 1548 1549 1549 1550 1551 1551 1552 1552 1553 1554 1554 1555 1556 1556 1557 1557 1558
1535 1536 1536 1537 1538 1538 1539 1539 1540 1541 1541 1542 1542 1543 1543 1544 1544 1545 1545 1546 1546 1547 1547 1547 1547 1547 1547 1548 1548 1549 1549 1550 1551 1552 1552 1553 1554 1554 1555 1556 1556 1557 1557
1533 1534 1535 1535 1536 1536 1537 1538 1538 1539 1540 1540 1541 1541 1542 1542 1543 1543 1544 1544 1545 1545 1545 1545 1545 1546 1546 1546 1547 1548 1548 1549 1549 1550 1551 1552 1553 1553 1554 1555 1555 1556 1556
1531 1532 1532 1533 1534 1535 1535 1536 1536 1537 1537 1538 1538 1539 1539 1540 1540 1541 1542 1543 1543 1543 1543 1544 1544 1544 1544 1545 1546 1546 1547 1547 1548 1549 1550 1550 1551 1552 1553 1553 1554 1555 1555
1528 1529 1530 1531 1532 1532 1533 1533 1534 1534 1535 1535 1536 1536 1537 1537 1538 1538 1539 1540 1541 1541 1541 1542 1542 1543 1543 1543 1544 1545 1545 1546 1546 1547 1548 1549 1550 1550 1551 1552 1552 1553 1553
1525 1526 1527 1528 1529 1529 1530 1530 1531 1532 1532 1533 1533 1533 1534 1534 1535 1535 1536 1537 1538 1539 1539 1540 1540 1541 1541 1542 1542 1543 1543 1544 1544 1545 1546 1547 1548 1549 1549 1550 1550 1551 1551
1522 1523 1524 1525 1525 1526 1527 1527 1528 1529 1529 1530 1530 1530 1531 1531 1532 1532 1533 1534 1535 1536 1537 1537 1538 1538 1539 1540 1540 1541 1541 1542 1542 1543 1543 1544 1545 1546 1547 1548 1548 1548 1548
1518 1519 1520 1521 1522 1522 1523 1524 1525 1525 1526 1527 1527 1528 1528 1530 1528 1529 1529 1531 1532 1533 1534 1535 1536 1536 1536 1537 1537 1538 1539 1539 1539 1540 1540 1541 1542 1543 1544 1545 1545 1545 1546
1514 1515 1516 1517 1518 1519 1520 1520 1521 1522 1523 1524 1525 1526 1525 1525 1525 1525 1526 1527 1528 1529 1530 1531 1532 1533 1533 1534 1534 1535 1535 1536 1536 1537 1537 1538 1539 1539 1540 1541 1542 1542 1542
1510 1511 1512 1513 1514 1515 1516 1517 1518 1519 1520 1520 1521 1522 1523 1522 1523 1522 1523 1523 1524 1525 1527 1528 1528 1529 1530 1530 1531 1531 1532 1533 1533 1534 1534 1534 1535 1536 1536 1537 1537 1538 1539
1506 1507 1509 1509 1510 1511 1512 1513 1514 1515 1515 1516 1517 1517 1518 1519 1519 1519 1519 1519 1520 1521 1523 1523 1524 1525 1526 1526 1527 1527 1528 1529 1529 1530 1530 1530 1531 1531 1532 1533 1533 1534 1534
1502 1503 1504 1505 1506 1507 1508 1508 1509 1510 1511 1512 1512 1513 1514 1515 1515 1516 1516 1515 1516 1517 1518 1519 1520 1520 1521 1522 1522 1523 1524 1525 1525 1525 1526 1526 1526 1527 1527 1528 1529 1529 1530
1498 1499 1500 1501 1502 1503 1503 1504 1505 1506 1506 1507 1508 1509 1509 1510 1511 1512 1513 1512 1512 1512 1513 1514 1515 1516 1516 1517 1518 1518 1519 1520 1520 1520 1521 1522 1522 1522 1523 1523 1523 1524 1525
1494 1494 1495 1496 1497 1498 1499 1500 1500 1501 1501 1502 1503 1504 1504 1505 1506 1507 1508 1508 1508 1508 1508 1509 1510 1510 1511 1512 1513 1513 1514 1514 1515 1515 1516 1516 1517 1517 1518 1518 1518 1519 1519
1490 1490 1491 1492 1493 1493 1494 1495 1495 1496 1497 1497 1498 1499 1499 1500 1500 1501 1502 1503 1505 1504 1504 1504 1505 1505 1506 1507 1507 1508 1508 1509 1510 1510 1511 1511 1512 1512 1513 1513 1513 1514 1514
1485 1486 1486 1487 1488 1489 1489 1490 1490 1491 1491 1492 1492 1493 1494 1494 1495 1496 1496 1497 1499 1500 1499 1498 1499 1500 1501 1501 1502 1502 1503 1503 1504 1505 1505 1506 1506 1507 1507 1507 1507 1508 1508
1481 1481 1481 1482 1483 1483 1484 1484 1485 1485 1486 1486 1487 1487 1488 1489 1489 1490 1490 1491 1492 1494 1493 1493 1494 1495 1495 1495 1496 1497 1497 1497 1498 1499 1499 1500 1500 1500 1501 1501 1501 1502 1502
1476 1476 1476 1477 1477 1478 1478 1479 1479 1480 1480 1480 1481 1482 1482 1482 1483 1484 1485 1485 1486 1487 1488 1487 1487 1489 1489 1490 1490 1490 1491 1491 1492 1492 1493 1493 1494 1494 1494 1495 1495 1495 1495
1471 1471 1471 1471 1472 1472 1473 1473 1474 1474 1474 1474 1475 1475 1476 1476 1477 1478 1479 1479 1480 1481 1482 1482 1482 1482 1483 1484 1484 1484 1485 1485 1485 1486 1486 1487 1487 1487 1487 1488 1488 1488 1489
1465 1466 1466 1466 1467 1467 1467 1468 1468 1468 1468 1469 1469 1469 1470 1470 1471 1472 1472 1473 1474 1475 1476 1476 1476 1477 1478 1478 1478 1478 1478 1479 1479 1480 1480 1480 1480 1480 1480 1481 1481 1481 1481
1460 1460 1461 1461 1461 1461 1461 1462 1462 1462 1462 1462 1463 1463 1464 1464 1465 1465 1466 1467 1467 1468 1469 1469 1470 1471 1471 1472 1472 1472 1472 1472 1473 1473 1473 1473 1473 1473 1473 1473 1473 1474 1474
1455 1455 1455 1455 1455 1455 1456 1456 1457 1457 1456 1456 1456 1457 1457 1458 1458 1459 1460 1460 1461 1462 1462 1463 1463 1464 1464 1465 1466 1466 1466 1466 1466 1467 1466 1466 1467 1466 1465 1466 1466 1466 1467
1449 1449 1449 1449 1449 1450 1450 1450 1451 1451 1451 1450 1450 1450 1451 1451 1452 1452 1452 1453 1454 1455 1456 1457 1456 1456 1457 1458 1459 1459 1460 1459 1459 1459 1460 1458 1459 1458 1458 1458 1459 1459 1459
1444 1444 1443 1443 1443 1444 1444 1445 1445 1445 1444 1444 1444 1444 1444 1445 1445 1445 1446 1446 1446 1447 1448 1449 1449 1450 1451 1452 1453 1453 1453 1453 1453 1453 1454 1452 1451 1452 1451 1451 1451 1451 1451
1439 1438 1438 1437 1437 1437 1438 1439 1439 1438 1438 1438 1438 1438 1438 1438 1438 1439 1439 1438 1439 1440 1441 1442 1443 1443 1444 1445 1445 1446 1446 1446 1445 1445 1446 1446 1444 1444 1443 1443 1443 1443 1443
1434 1433 1432 1432 1432 1431 1432 1432 1433 1432 1432 1431 1431 1431 1431 1432 1432 1432 1432 1432 1432 1433 1434 1434 1435 1435 1436 1436 1437 1438 1438 1439 1438 1438 1439 1439 1438 1438 1436 1435 1436 1436 1436